QFA930 PADQ-PAVD

Flight info

Callsign QFA930
Flight time 0h 47m
Altitude 33000
Route ODK Q14 JOH
Aircraft B738/M-L/LB1

Departure

Time 2026-05-06 10:25
Airport Kodiak Airport (PADQ)

Arrival

Time 2026-05-06 11:12
Airport Valdez Pioneer Field (PAVD)
Time Latitude Longitude Altitude Speed Heading
2026-05-06 08:52 57.75383 -152.51423 82 ft 0 kts 341°
2026-05-06 10:18 57.75383 -152.51422 82 ft 0 kts 341°
2026-05-06 10:19 57.75372 -152.51415 82 ft 2 kts 336°
2026-05-06 10:19 57.75356 -152.51398 82 ft 3 kts 321°
2026-05-06 10:19 57.75342 -152.51370 82 ft 3 kts 303°
2026-05-06 10:19 57.75334 -152.51336 82 ft 3 kts 286°
2026-05-06 10:20 57.75331 -152.51298 82 ft 3 kts 271°
2026-05-06 10:20 57.75333 -152.51259 82 ft 3 kts 257°
2026-05-06 10:20 57.75339 -152.51223 82 ft 3 kts 251°
2026-05-06 10:20 57.75340 -152.51214 82 ft 0 kts 251°
2026-05-06 10:21 57.75338 -152.51222 82 ft 2 kts 246°
2026-05-06 10:21 57.75311 -152.51253 82 ft 7 kts 178°
2026-05-06 10:22 57.75255 -152.51198 82 ft 9 kts 159°
2026-05-06 10:22 57.75232 -152.51191 82 ft 0 kts 174°
2026-05-06 10:22 57.75200 -152.51227 82 ft 15 kts 238°
2026-05-06 10:22 57.75195 -152.51503 82 ft 15 kts 272°
2026-05-06 10:23 57.75197 -152.51645 82 ft 18 kts 271°
2026-05-06 10:23 57.75206 -152.51856 82 ft 6 kts 301°
2026-05-06 10:23 57.75227 -152.51836 82 ft 4 kts 87°
2026-05-06 10:23 57.75222 -152.51783 82 ft 7 kts 95°
2026-05-06 10:24 57.75217 -152.51577 82 ft 28 kts 92°
2026-05-06 10:24 57.75195 -152.50776 82 ft 93 kts 94°
2026-05-06 10:24 57.75162 -152.49218 83 ft 145 kts 91°
2026-05-06 10:24 57.75156 -152.47245 540 ft 152 kts 86°
2026-05-06 10:25 57.75374 -152.45143 900 ft 178 kts 75°
2026-05-06 10:25 57.75775 -152.42881 1450 ft 187 kts 67°
2026-05-06 10:25 57.76251 -152.40627 2265 ft 187 kts 69°
2026-05-06 10:25 57.76695 -152.38305 3068 ft 192 kts 62°
2026-05-06 10:26 57.77418 -152.36131 3789 ft 202 kts 48°
2026-05-06 10:26 57.78451 -152.34236 4495 ft 216 kts 41°
2026-05-06 10:26 57.79502 -152.32056 5141 ft 235 kts 47°
2026-05-06 10:26 57.80615 -152.29663 5846 ft 252 kts 47°
2026-05-06 10:27 57.81901 -152.27266 6521 ft 268 kts 38°
2026-05-06 10:27 57.83394 -152.25093 7406 ft 275 kts 34°
2026-05-06 10:27 57.84963 -152.22976 8335 ft 281 kts 34°
2026-05-06 10:27 57.86550 -152.20775 9255 ft 286 kts 36°
2026-05-06 10:28 57.88136 -152.18464 10179 ft 291 kts 37°
2026-05-06 10:28 57.89780 -152.16012 10686 ft 311 kts 37°
2026-05-06 10:28 57.91521 -152.13410 11181 ft 329 kts 37°
2026-05-06 10:28 57.93320 -152.10739 11871 ft 338 kts 37°
2026-05-06 10:29 57.95182 -152.07988 12723 ft 343 kts 37°
2026-05-06 10:29 57.97073 -152.05196 13594 ft 348 kts 37°
2026-05-06 10:29 57.98984 -152.02366 14458 ft 353 kts 37°
2026-05-06 10:29 58.00925 -151.99480 15329 ft 358 kts 38°
2026-05-06 10:30 58.02894 -151.96545 16196 ft 363 kts 38°
2026-05-06 10:30 58.04892 -151.93564 17055 ft 369 kts 38°
2026-05-06 10:30 58.06923 -151.90529 17910 ft 374 kts 38°
2026-05-06 10:30 58.08977 -151.87459 18744 ft 380 kts 38°
2026-05-06 10:31 58.11067 -151.84331 19554 ft 386 kts 38°
2026-05-06 10:31 58.13190 -151.81148 20329 ft 392 kts 38°
2026-05-06 10:31 58.15346 -151.77911 21095 ft 399 kts 38°
2026-05-06 10:31 58.17534 -151.74616 21845 ft 405 kts 38°
2026-05-06 10:32 58.19754 -151.71267 22559 ft 411 kts 38°
2026-05-06 10:32 58.22008 -151.67870 23238 ft 417 kts 38°
2026-05-06 10:32 58.24293 -151.64425 23904 ft 422 kts 38°
2026-05-06 10:32 58.26606 -151.60928 24547 ft 428 kts 38°
2026-05-06 10:33 58.28944 -151.57384 25198 ft 432 kts 38°
2026-05-06 10:33 58.31303 -151.53796 25837 ft 436 kts 38°
2026-05-06 10:33 58.33685 -151.50168 26460 ft 441 kts 38°
2026-05-06 10:33 58.36084 -151.46511 27060 ft 445 kts 38°
2026-05-06 10:34 58.38515 -151.42802 27638 ft 449 kts 38°
2026-05-06 10:34 58.40954 -151.39073 28189 ft 452 kts 38°
2026-05-06 10:34 58.43425 -151.35289 28702 ft 456 kts 38°
2026-05-06 10:34 58.45917 -151.31464 29027 ft 465 kts 38°
2026-05-06 10:35 58.48459 -151.27555 29337 ft 472 kts 38°
2026-05-06 10:35 58.51020 -151.23607 29778 ft 475 kts 38°
2026-05-06 10:35 58.53596 -151.19626 30261 ft 477 kts 38°
2026-05-06 10:35 58.56175 -151.15634 30768 ft 477 kts 38°
2026-05-06 10:36 58.58752 -151.11637 31271 ft 477 kts 38°
2026-05-06 10:36 58.61328 -151.07636 31759 ft 476 kts 38°
2026-05-06 10:36 58.63894 -151.03642 32355 ft 473 kts 38°
2026-05-06 10:36 58.66437 -150.99675 32899 ft 471 kts 38°
2026-05-06 10:37 58.71563 -150.91660 32939 ft 474 kts 38°
2026-05-06 10:37 58.76661 -150.83652 32945 ft 473 kts 38°
2026-05-06 10:38 58.81748 -150.75634 32946 ft 472 kts 38°
2026-05-06 10:38 58.86825 -150.67599 32946 ft 472 kts 38°
2026-05-06 10:39 58.91891 -150.59549 32945 ft 472 kts 39°
2026-05-06 10:39 58.96959 -150.51467 32945 ft 472 kts 39°
2026-05-06 10:40 59.02021 -150.43359 32944 ft 472 kts 39°
2026-05-06 10:40 59.07074 -150.35236 32943 ft 471 kts 39°
2026-05-06 10:41 59.12118 -150.27094 32943 ft 471 kts 39°
2026-05-06 10:41 59.17124 -150.18983 32943 ft 471 kts 39°
2026-05-06 10:42 59.22158 -150.10793 32941 ft 470 kts 39°
2026-05-06 10:42 59.27177 -150.02595 32941 ft 470 kts 39°
2026-05-06 10:43 59.32201 -149.94357 32940 ft 473 kts 40°
2026-05-06 10:44 59.39746 -149.81923 32935 ft 472 kts 40°
2026-05-06 10:44 59.44763 -149.73612 32934 ft 471 kts 40°
2026-05-06 10:45 59.49735 -149.65344 32934 ft 471 kts 40°
2026-05-06 10:45 59.54730 -149.57003 32934 ft 471 kts 40°
2026-05-06 10:46 59.59735 -149.48614 32934 ft 472 kts 40°
2026-05-06 10:46 59.64735 -149.40198 32936 ft 472 kts 40°
2026-05-06 10:47 59.69736 -149.31745 32937 ft 473 kts 40°
2026-05-06 10:47 59.74738 -149.23257 32937 ft 474 kts 40°
2026-05-06 10:48 59.79741 -149.14732 32936 ft 474 kts 40°
2026-05-06 10:48 59.84739 -149.06174 32936 ft 475 kts 40°
2026-05-06 10:49 59.89173 -148.96502 32940 ft 474 kts 59°
2026-05-06 10:49 59.92320 -148.84886 32940 ft 473 kts 64°
2026-05-06 10:50 59.95329 -148.73207 32933 ft 474 kts 64°
2026-05-06 10:50 59.98355 -148.61514 32931 ft 474 kts 64°
2026-05-06 10:51 60.01379 -148.49816 32941 ft 471 kts 64°
2026-05-06 10:51 60.04371 -148.38110 32944 ft 474 kts 64°
2026-05-06 10:52 60.07364 -148.26358 32944 ft 474 kts 65°
2026-05-06 10:52 60.10332 -148.14661 32377 ft 473 kts 65°
2026-05-06 10:52 60.11814 -148.08795 31762 ft 470 kts 65°
2026-05-06 10:53 60.13283 -148.02956 31169 ft 468 kts 65°
2026-05-06 10:53 60.14739 -147.97158 30585 ft 465 kts 65°
2026-05-06 10:53 60.16187 -147.91375 30006 ft 462 kts 66°
2026-05-06 10:53 60.17645 -147.85541 29429 ft 460 kts 66°
2026-05-06 10:54 60.19077 -147.79791 28798 ft 459 kts 66°
2026-05-06 10:54 60.20478 -147.74154 28184 ft 457 kts 65°
2026-05-06 10:54 60.21892 -147.68447 27584 ft 455 kts 65°
2026-05-06 10:54 60.23298 -147.62764 26984 ft 452 kts 65°
2026-05-06 10:55 60.24693 -147.57106 26384 ft 450 kts 65°
2026-05-06 10:55 60.26079 -147.51472 25784 ft 448 kts 65°
2026-05-06 10:55 60.27455 -147.45864 25186 ft 445 kts 65°
2026-05-06 10:55 60.28820 -147.40281 24588 ft 443 kts 65°
2026-05-06 10:56 60.30175 -147.34732 24015 ft 439 kts 65°
2026-05-06 10:56 60.31517 -147.29219 23440 ft 436 kts 65°
2026-05-06 10:56 60.32848 -147.23740 22865 ft 433 kts 65°
2026-05-06 10:56 60.34167 -147.18297 22290 ft 430 kts 65°
2026-05-06 10:57 60.35471 -147.12899 21716 ft 427 kts 65°
2026-05-06 10:57 60.36769 -147.07514 21140 ft 424 kts 65°
2026-05-06 10:57 60.38049 -147.02188 20566 ft 421 kts 65°
2026-05-06 10:57 60.39321 -146.96885 19992 ft 418 kts 65°
2026-05-06 10:58 60.40599 -146.91547 19409 ft 415 kts 66°
2026-05-06 10:58 60.41832 -146.86383 18842 ft 412 kts 66°
2026-05-06 10:58 60.43085 -146.81114 18259 ft 408 kts 66°
2026-05-06 10:58 60.44310 -146.75950 17684 ft 405 kts 66°
2026-05-06 10:59 60.45531 -146.70833 17107 ft 402 kts 64°
2026-05-06 10:59 60.47216 -146.66422 16958 ft 391 kts 43°
2026-05-06 10:59 60.49433 -146.63476 16948 ft 375 kts 22°
2026-05-06 10:59 60.51907 -146.62276 16743 ft 363 kts
2026-05-06 11:00 60.54387 -146.62878 16215 ft 357 kts 345°
2026-05-06 11:00 60.56790 -146.64077 15750 ft 353 kts 343°
2026-05-06 11:00 60.59149 -146.65347 15323 ft 348 kts 343°
2026-05-06 11:00 60.61475 -146.66569 14916 ft 343 kts 343°
2026-05-06 11:01 60.63772 -146.67712 14515 ft 337 kts 344°
2026-05-06 11:01 60.66033 -146.68808 14117 ft 331 kts 345°
2026-05-06 11:01 60.68252 -146.69889 13741 ft 325 kts 345°
2026-05-06 11:01 60.70426 -146.70968 13365 ft 318 kts 344°
2026-05-06 11:02 60.72552 -146.72035 12990 ft 312 kts 344°
2026-05-06 11:02 60.74650 -146.73090 12612 ft 307 kts 345°
2026-05-06 11:02 60.76708 -146.74121 12242 ft 302 kts 345°
2026-05-06 11:02 60.78725 -146.75130 11920 ft 298 kts 345°
2026-05-06 11:03 60.80737 -146.76138 11594 ft 296 kts 345°
2026-05-06 11:03 60.82735 -146.77141 11268 ft 294 kts 345°
2026-05-06 11:03 60.84721 -146.78139 10942 ft 294 kts 345°
2026-05-06 11:03 60.86699 -146.79136 10617 ft 290 kts 345°
2026-05-06 11:04 60.88665 -146.80127 10292 ft 291 kts 345°
2026-05-06 11:04 60.90625 -146.81116 9966 ft 290 kts 346°
2026-05-06 11:04 60.92581 -146.82104 9640 ft 288 kts 346°
2026-05-06 11:04 60.94519 -146.83084 9315 ft 288 kts 346°
2026-05-06 11:05 60.96452 -146.84064 8989 ft 285 kts 346°
2026-05-06 11:05 60.98381 -146.85043 8663 ft 284 kts 346°
2026-05-06 11:05 60.99670 -146.85698 8457 ft 283 kts 346°
2026-05-06 11:05 61.01579 -146.86669 8198 ft 282 kts 346°
2026-05-06 11:06 61.03485 -146.87629 7947 ft 282 kts 348°
2026-05-06 11:06 61.05408 -146.87510 7753 ft 279 kts 20°
2026-05-06 11:06 61.06967 -146.85263 7580 ft 275 kts 54°
2026-05-06 11:06 61.07656 -146.81651 7320 ft 273 kts 88°
2026-05-06 11:07 61.07544 -146.77723 6982 ft 277 kts 96°
2026-05-06 11:07 61.07434 -146.73761 6482 ft 274 kts 86°
2026-05-06 11:07 61.07850 -146.69995 6000 ft 264 kts 78°
2026-05-06 11:07 61.08290 -146.66380 5510 ft 255 kts 78°
2026-05-06 11:08 61.08711 -146.62881 5010 ft 245 kts 78°
2026-05-06 11:08 61.09109 -146.59592 4426 ft 227 kts 77°
2026-05-06 11:08 61.09480 -146.56540 4021 ft 210 kts 77°
2026-05-06 11:08 61.09817 -146.53740 3578 ft 193 kts 77°
2026-05-06 11:09 61.10127 -146.51156 3157 ft 177 kts 77°
2026-05-06 11:09 61.10411 -146.48794 2826 ft 162 kts 77°
2026-05-06 11:09 61.10673 -146.46616 2396 ft 156 kts 77°
2026-05-06 11:09 61.10930 -146.44475 1960 ft 152 kts 77°
2026-05-06 11:10 61.11262 -146.42452 1614 ft 145 kts 68°
2026-05-06 11:10 61.11611 -146.40522 1222 ft 142 kts 70°
2026-05-06 11:10 61.11986 -146.38627 747 ft 145 kts 71°
2026-05-06 11:10 61.12210 -146.36688 544 ft 133 kts 81°
2026-05-06 11:11 61.12367 -146.34811 404 ft 133 kts 80°
2026-05-06 11:11 61.12494 -146.32913 279 ft 131 kts 84°
2026-05-06 11:11 61.12535 -146.31051 195 ft 130 kts 89°
2026-05-06 11:11 61.12755 -146.29263 235 ft 134 kts 56°
2026-05-06 11:12 61.13183 -146.27518 244 ft 136 kts 76°
2026-05-06 11:12 61.13344 -146.25659 85 ft 124 kts 84°
2026-05-06 11:12 61.13434 -146.24416 84 ft 41 kts 77°
2026-05-06 11:12 61.13433 -146.24120 84 ft 11 kts 207°
2026-05-06 11:13 61.13414 -146.24281 84 ft 14 kts 256°
2026-05-06 11:13 61.13341 -146.24379 84 ft 15 kts 179°
2026-05-06 11:13 61.13247 -146.24277 84 ft 15 kts 93°
2026-05-06 11:13 61.13249 -146.24236 84 ft 0 kts 83°
2026-05-06 11:14 61.13249 -146.24228 84 ft 2 kts 82°
2026-05-06 11:14 61.13255 -146.24149 84 ft 9 kts 84°
2026-05-06 11:14 61.13223 -146.24008 84 ft 14 kts 157°
2026-05-06 11:14 61.13177 -146.24059 84 ft 2 kts 250°
2026-05-06 11:15 61.13177 -146.24060 84 ft 0 kts 250°
2026-05-06 11:23 61.13180 -146.24375 84 ft 0 kts 169°